Regional Weather Roundup
Issued by NWS

Home | Current Version | Previous Version | Text Only | Print | Product List | Glossary Off
Versions: 1 2 3 4 5 6 7 8 9 10 11 12 13 14 15 16 17 18 19 20 21 22 23 24 25 26 27 28 29 30 31 32 33 34 35 36 37 38 39 40 41 42 43 44 45 46 47 48 49 50

283
ASUS44 KLIX 200505
RWRLA
LOUISIANA WEATHER ROUNDUP
NATIONAL WEATHER SERVICE NEW ORLEANS LA
1100 PM CST FRI DEC 19 2014

NOTE: "FAIR" INDICATES FEW OR NO CLOUDS BELOW 12,000 FEET WITH NO
      SIGNIFICANT WEATHER AND/OR OBSTRUCTIONS TO VISIBILITY.
      SKY/WX - SKY CONDITION AND SIGNIFICANT WEATHER.
      TMP - AIR TEMPERATURE.    DP   - DEWPOINT TEMPERATURE.
      RH  - RELATIVE HUMIDITY.  PRES - PRESSURE.
      HX  - HEAT INDEX.         WCI  - WIND CHILL INDEX.

*  THESE STATIONS ARE NOT NWS OR FAA STATIONS AND ARE NOT UNDER
   NWS QUALITY CONTROL.

LAZ040-048-061>063-065-066-069-200600-
SOUTHEAST LOUISIANA

CITY           SKY/WX    TMP DP  RH WIND       PRES   REMARKS
N.O. AUDUBON     N/A     49  49 100 MISG        N/A
N.O. INTL ARPT RAIN      50  48  93 NE16      30.07F FOG
N.O. LAKEFRONT HVY RAIN  52  48  86 NE20      30.09S FOG
N.O. DOWNTOWN* CLOUDY    50  45  81 NE8       30.08F
SLIDELL        LGT RAIN  49  46  90 NE5       30.09S
BATON ROUGE    CLOUDY    49  47  93 NE9       30.09F
BOOTHVILLE     LGT RAIN  59  58  96 NE9       30.04F
BELLE CHASSE   LGT RAIN  50  49  96 NE14      30.07F
BOGALUSA*      DRIZZLE   49  46  88 N3        30.13S
GALLIANO*      RAIN      55  54  96 MISG      30.05F
NEW ROADS*     CLOUDY    47  47  97 N9        30.12F
GONZALES*      DRIZZLE   50  50 100 NE7       30.08F
HAMMOND*       NOT AVBL
HOUMA*         RAIN      50  50  98 NE12      30.06F
PORT FOURCHON* CLOUDY    57  55  94 NE17G23   30.06F

$$

LAZ041-044-053-054-200600-
SOUTHWEST LOUISIANA

CITY           SKY/WX    TMP DP  RH WIND       PRES   REMARKS
LAKE CHARLES   CLOUDY    51  50  96 MISG      30.10R
LAFAYETTE      LGT RAIN  50  50 100 N10       30.09R
PATTERSON      CLOUDY    52  48  87 E13       30.06F
SALT POINT       N/A     54  50  86 VRB5      30.03F
NEW IBERIA     RAIN      52  50  93 NE9       30.08R FOG
CHENAULT AIRPK CLOUDY    50  49  98 N10       30.11R

$$

LAZ027-028-200600-
CENTRAL LOUISIANA

CITY           SKY/WX    TMP DP  RH WIND       PRES   REMARKS
FORT POLK      CLOUDY    47  46  97 NE7       30.13S
ALEXANDRIA INT LGT RAIN  47  46  97 NE7       30.15S FOG
ALEXANDRIA     CLOUDY    48  45  89 VRB5      30.16S

$$

LAZ001-002-200600-
NORTHWEST LOUISIANA

CITY           SKY/WX    TMP DP  RH WIND       PRES   REMARKS
SHREVEPORT     CLOUDY    47  45  93 NE9       30.20R
BARKSDALE AFB  NOT AVBL
DTN SHREVEPORT CLOUDY    46  42  86 NE8       30.21R

$$

LAZ014-016-200600-
NORTHEAST LOUISIANA

CITY           SKY/WX    TMP DP  RH WIND       PRES   REMARKS
MONROE         CLOUDY    46  45  96 NE8       30.21S
TALLULAH       CLOUDY    46  44  93 E7        30.19F

$$




USA.gov is the U.S. government's official web portal to all federal, state and local government web resources and services.